"2009-07-30 00:00:00",1106209,6.929,54.55,5.293,1.093,13.96,104.2208,10.08,11.21,88.3,0,110.2,13.36,10.87,16.5
"2009-07-30 00:00:30",1106210,6.478,53.98,5.747,1.417,14.08,104.2228,10.08,11.27,88.5,0,110.2,13.36,10.87,16.0
"2009-07-30 00:01:00",1106211,5.487,46.54,5.113,0.989,11.7,104.2234,10.09,11.18,88.5,0,110.2,13.36,10.87,8.5
"2009-07-30 00:01:30",1106212,5.225,43.75,2.142,0.558,10.95,104.2259,10.09,11.19,88.6,0,110.2,13.36,10.88,5.8
"2009-07-30 00:02:00",1106213,6.611,61,5.874,1.164,14.42,104.2273,10.1,11.32,88.8,0,110.3,13.36,10.88,23.0
"2009-07-30 00:02:30",1106214,5.965,52.89,6.782,1.208,12.63,104.2299,10.1,11.23,88.9,0,110.2,13.36,10.89,14.9
"2009-07-30 00:03:00",1106215,5.305,41.95,1.602,0.299,10.52,104.2316,10.11,11.1,88.9,0,110.2,13.4,10.89,4.0
"2009-07-30 00:03:30",1106216,5.469,45.88,7.703,1.342,12.45,104.2301,10.1,11.29,89.2,0,110.2,13.36,10.89,7.9
"2009-07-30 00:04:00",1106217,6.677,52.61,7.595,1.06,13.71,104.233,10.11,11.31,89.3,0,110.2,13.36,10.90,14.6
"2009-07-30 00:04:30",1106218,6.665,50.64,7.656,1.578,12.97,104.2327,10.11,11.26,89.3,0,110.2,13.36,10.90,12.6
"2009-07-30 00:05:00",1106219,7.638,53.42,6.956,1.068,14.01,104.2316,10.11,11.35,89.5,0,110.2,13.36,10.89,15.4
"2009-07-30 00:05:30",1106220,7.787,54.68,6.143,1.23,14.14,104.2331,10.11,11.36,89.5,0,110.2,13.36,10.90,16.7
"2009-07-30 00:06:00",1106221,6.233,47.27,7.332,1.182,12.32,104.2317,10.11,11.28,89.4,0,110.2,13.36,10.89,9.3
"2009-07-30 00:06:30",1106222,5.291,38.2,2.745,0.464,10.49,104.2354,10.12,11.11,89.3,0,110.2,13.39,10.90,0.2
"2009-07-30 00:07:00",1106223,6.727,46.44,6.225,1.318,13.17,104.2354,10.12,11.3,89.6,0,110.2,13.36,10.90,8.4
"2009-07-30 00:07:30",1106224,6.812,45.59,6.577,1.336,13.52,104.238,10.12,11.29,89.7,0,110.2,13.36,10.91,7.6
"2009-07-30 00:08:00",1106225,7.594,45.35,7.345,1.489,14,104.2357,10.12,11.26,89.7,0,110.2,13.36,10.90,7.3
"2009-07-30 00:08:30",1106226,8.21,44.82,6.659,1.325,13.63,104.2289,10.1,11.27,89.6,0,110.2,13.36,10.89,6.8
"2009-07-30 00:09:00",1106227,7.917,48.07,6.908,1.13,13.9,104.2236,10.09,11.28,89.4,0,110.2,13.36,10.87,10.1
"2009-07-30 00:09:30",1106228,6.006,43.05,1.782,0.318,10.72,104.2153,10.06,11.13,89.2,0,110.2,13.39,10.85,5.0
"2009-07-30 00:10:00",1106229,5.885,43.29,3.175,0.537,10.6,104.2076,10.04,11.07,89.1,0,110.2,13.36,10.83,5.3
"2009-07-30 00:10:30",1106230,7.253,45.54,5.893,1.351,13.78,104.2091,10.05,11.33,89.3,0,110.2,13.36,10.84,7.5
"2009-07-30 00:11:00",1106231,6.796,44.91,8.32,1.408,13.21,104.2071,10.04,11.27,89.3,0,110.2,13.36,10.83,6.9
"2009-07-30 00:11:30",1106232,7.163,48.07,7.271,1.091,14.3,104.2095,10.05,11.26,89.3,0,110.2,13.37,10.84,10.1
"2009-07-30 00:12:00",1106233,6.784,50.12,5.742,1.369,14.22,104.2115,10.05,11.32,89.4,0,110.2,13.37,10.84,12.1
"2009-07-30 00:12:30",1106234,7.092,50.45,8.2,1.315,13.55,104.2112,10.05,11.25,89.5,0,110.2,13.37,10.84,12.5
"2009-07-30 00:13:00",1106235,5.316,37.42,3.835,0.53,10.95,104.2121,10.06,11.08,89.4,0,110.2,13.4,10.84,359.4
"2009-07-30 00:13:30",1106236,7.013,47.41,8.56,1.31,6.592,104.2144,10.06,11.24,89.6,0,110.2,13.37,10.85,9.4
"2009-07-30 00:14:00",1106237,8.07,52.62,8.07,1.259,-22.27,104.2159,10.07,11.21,89.5,0,110.2,13.37,10.85,14.6
"2009-07-30 00:14:30",1106238,8.4,50.72,7.841,1.434,-11.92,104.22,10.08,11.35,89.5,0,110.2,13.37,10.86,12.7
"2009-07-30 00:15:00",1106239,8.37,53.41,6.634,1.41,12.18,104.2224,10.08,11.3,89.3,0,110.2,13.37,10.87,15.4
"2009-07-30 00:15:30",1106240,8,52.6,5.938,1.174,-43,104.2247,10.09,11.3,89.2,0,110.2,13.37,10.88,14.6
"2009-07-30 00:16:00",1106241,8.33,46.95,6.55,1.348,-21.86,104.2277,10.1,11.17,89,0,110.2,13.37,10.88,9.0
"2009-07-30 00:16:30",1106242,6.517,40.76,2.27,0.255,-15.06,104.2131,10.06,11.08,88.8,0,110.2,13.37,10.85,2.8
"2009-07-30 00:17:00",1106243,7.954,49.5,7.368,1.352,-28.96,104.201,10.03,11.21,88.8,0,110.2,13.37,10.82,11.5
"2009-07-30 00:17:30",1106244,8.41,56.28,4.144,0.96,2.924,104.1973,10.02,11.29,88.9,0,110.2,13.37,10.81,18.3
"2009-07-30 00:18:00",1106245,7.062,53.94,6.153,1.293,10.5,104.1982,10.02,11.23,89,0,110.2,13.37,10.81,15.9
"2009-07-30 00:18:30",1106246,6.58,56.92,7.553,1.311,10.35,104.1991,10.02,11.17,89.1,0,110.2,13.37,10.81,18.9
"2009-07-30 00:19:00",1106247,6.365,47.51,4.479,1.058,8.3,104.1991,10.02,11.19,89.2,0,110.2,13.37,10.81,9.5
"2009-07-30 00:19:30",1106248,6.462,47.14,5.147,1.274,12.86,104.1991,10.02,11,89.1,0,110.2,13.37,10.81,9.1
"2009-07-30 00:20:00",1106249,6.129,49.56,3.749,0.798,10.94,104.1991,10.02,11.2,89.4,0,110.2,13.37,10.81,11.6
"2009-07-30 00:20:30",1106250,8.09,54.73,4.844,0.627,16.47,104.1991,10.02,11.31,89.6,0,110.2,13.37,10.81,16.7
"2009-07-30 00:21:00",1106251,6.948,56.72,4.702,1.243,15.46,104.1991,10.02,11.27,89.6,0,110.2,13.37,10.81,18.7
"2009-07-30 00:21:30",1106252,6.918,54.44,6.16,1.225,14.73,104.1991,10.02,11.2,89.6,0,110.2,13.37,10.81,16.4
"2009-07-30 00:22:00",1106253,6.12,51.94,7.395,1.42,13.12,104.1986,10.02,11.13,89.6,0,110.2,13.36,10.81,13.9
"2009-07-30 00:22:30",1106254,5.872,45.19,7.274,1.283,12.66,104.1977,10.02,11.17,89.7,0,110.2,13.36,10.81,7.2
"2009-07-30 00:23:00",1106255,5.872,42.13,2.746,0.461,10.95,104.1932,10.01,11.07,89.7,0,110.2,13.37,10.80,4.1
"2009-07-30 00:23:30",1106256,7.662,52.67,6.336,1.075,15.22,104.176,9.96,11.26,90,0,110.2,13.36,10.75,14.7
"2009-07-30 00:24:00",1106257,7.801,55.39,3.635,0.706,15.75,104.1658,9.94,11.3,90,0,110.2,13.37,10.72,17.4
"2009-07-30 00:24:30",1106258,6.481,50.89,6.632,1.225,14.01,104.1653,9.94,11.22,90,0,110.2,13.36,10.72,12.9
"2009-07-30 00:25:00",1106259,5.414,45.32,3.884,0.936,11.47,104.1653,9.94,11.03,89.9,0,110.2,13.37,10.72,7.3
"2009-07-30 00:25:30",1106260,5.893,53.46,8.45,1.202,13.11,104.1653,9.94,11.06,90,0,110.2,13.36,10.72,15.5
"2009-07-30 00:26:00",1106261,4.857,51.54,4.054,0.13,10.96,104.1653,9.94,11.05,90.1,0,110.2,13.4,10.72,13.5
"2009-07-30 00:26:30",1106262,6.599,56.43,7.103,1.581,13.33,104.1653,9.94,11.13,90.2,0,110.2,13.37,10.72,18.4
"2009-07-30 00:27:00",1106263,7.517,60.17,5.541,1.085,15.31,104.1653,9.94,11.26,90.4,0,110.1,13.37,10.72,22.2
"2009-07-30 00:27:30",1106264,7.263,58.37,5.552,1.038,15.7,104.1653,9.94,11.25,90.5,0,110.2,13.37,10.72,20.4
"2009-07-30 00:28:00",1106265,7.18,55.83,5.409,1.072,16.08,104.1602,9.92,11.22,90.4,0,110.2,13.37,10.71,17.8
"2009-07-30 00:28:30",1106266,6.328,50.2,4.268,0.798,8.26,104.1531,9.91,10.98,90.2,0,110.2,13.37,10.69,12.2
"2009-07-30 00:29:00",1106267,7.231,55.82,6.59,1.309,7.391,104.143,9.88,11.01,90,0,110.2,13.37,10.67,17.8
"2009-07-30 00:29:30",1106268,6.037,50.92,1.512,0.101,9.65,104.1314,9.85,10.89,89.8,0,110.2,13.41,10.64,12.9
"2009-07-30 00:30:00",1106269,8.17,66.22,5.463,0.904,15.82,104.1314,9.85,11.05,89.9,0,110.2,13.37,10.64,28.2
"2009-07-30 00:30:30",1106270,7.816,71.17,5.773,1.088,11.98,104.1314,9.85,11.16,90,0,110.2,13.38,10.64,33.2
"2009-07-30 00:31:00",1106271,6.792,74.9,6.167,1.375,6.874,104.1314,9.85,11.16,90.1,0,110.2,13.38,10.64,36.9
"2009-07-30 00:31:30",1106272,6.249,77.1,6.46,1.236,10.79,104.1314,9.85,10.99,89.9,0,110.2,13.37,10.64,39.1
"2009-07-30 00:32:00",1106273,5.272,71.84,5.378,1.023,13.15,104.1314,9.85,11.05,90,0,110.2,13.38,10.64,33.8
"2009-07-30 00:32:30",1106274,5.025,65.45,5.225,0.814,11.67,104.1311,9.85,10.87,90,0,110.2,13.37,10.64,27.4
"2009-07-30 00:33:00",1106275,4.586,65.16,3.073,0.242,11.13,104.1314,9.85,10.89,90.1,0,110.2,13.41,10.64,27.2
"2009-07-30 00:33:30",1106276,6.534,70.63,5.81,1.144,15.42,104.1314,9.85,11.12,90.3,0,110.2,13.38,10.64,32.6
"2009-07-30 00:34:00",1106277,6.93,68.75,5.389,1.002,15.52,104.1311,9.85,11.16,90.4,0,110.2,13.38,10.64,30.8
"2009-07-30 00:34:30",1106278,6.328,63.86,7.477,1.242,14.75,104.1272,9.84,11.12,90.4,0,110.2,13.38,10.63,25.9
"2009-07-30 00:35:00",1106279,5.875,58.12,6.893,1.177,13.82,104.1229,9.83,10.99,90.2,0,110.2,13.38,10.61,20.1
"2009-07-30 00:35:30",1106280,4.18,44.99,1.346,0.096,10.6,104.1193,9.82,10.95,90.2,0,110.2,13.41,10.61,7.0
"2009-07-30 00:36:00",1106281,4.159,40.68,1.785,0.076,10.35,104.115,9.81,10.85,90.1,0,110.2,13.41,10.59,2.7
"2009-07-30 00:36:30",1106282,4.898,39.62,3.88,0.949,11.59,104.1063,9.79,10.97,90.2,0,110.2,13.38,10.57,1.6
"2009-07-30 00:37:00",1106283,5.917,48.19,5.567,1.078,14.69,104.0998,9.77,11.08,90.3,0,110.2,13.38,10.56,10.2
"2009-07-30 00:37:30",1106284,5.362,43.32,7.249,1.309,14.67,104.0978,9.76,11.07,90.4,0,110.2,13.38,10.55,5.3
"2009-07-30 00:38:00",1106285,4.33,35.56,7.446,1.59,12.81,104.0987,9.77,11.04,90.3,0,110.2,13.37,10.55,357.6
"2009-07-30 00:38:30",1106286,3.96,33.15,6.049,1.275,11.98,104.0984,9.77,10.89,90.2,0,110.2,13.37,10.55,355.1
"2009-07-30 00:39:00",1106287,4.122,34.94,6.689,1.267,12.72,104.1005,9.77,10.97,90.3,0,110.2,13.37,10.56,356.9
"2009-07-30 00:39:30",1106288,3.653,33.92,2.278,0.36,10.47,104.1016,9.77,10.82,90.1,0,110.2,13.41,10.56,355.9
"2009-07-30 00:40:00",1106289,4.22,38.77,6.614,1.38,12.58,104.1028,9.78,10.9,90.3,0,110.2,13.38,10.56,0.8
"2009-07-30 00:40:30",1106290,4.219,35.24,7.674,1.283,13.92,104.1035,9.78,11.01,90.4,0,110.2,13.38,10.56,357.2
"2009-07-30 00:41:00",1106291,4.186,36.05,7.737,1.317,13.68,104.1015,9.77,11.01,90.4,0,110.2,13.38,10.56,358.0
"2009-07-30 00:41:30",1106292,4.684,41.55,7.692,1.416,13.01,104.0998,9.77,10.94,90.4,0,110.2,13.37,10.56,3.5
"2009-07-30 00:42:00",1106293,4.735,40.18,7.829,1.438,12.82,104.0982,9.77,10.92,90.4,0,110.2,13.37,10.55,2.2
"2009-07-30 00:42:30",1106294,3.647,36.75,5.06,0.844,11.51,104.0942,9.75,10.93,90.5,0,110.2,13.38,10.54,358.8
"2009-07-30 00:43:00",1106295,4.411,42.58,6.878,1.211,11.85,104.0933,9.75,10.78,90.3,0,110.2,13.38,10.54,4.6
"2009-07-30 00:43:30",1106296,4.65,42.78,6.792,1.269,12.58,104.0882,9.74,10.91,90.5,0,110.2,13.39,10.53,4.8
"2009-07-30 00:44:00",1106297,3.949,41.24,5.125,0.951,11.82,104.0913,9.75,10.95,90.5,0,110.2,13.39,10.53,3.2
"2009-07-30 00:44:30",1106298,5.07,47.3,5.26,1.267,13.62,104.0919,9.75,10.9,90.5,0,110.2,13.39,10.54,9.3
"2009-07-30 00:45:00",1106299,4.921,50.65,6.373,1.219,14.36,104.0877,9.74,10.99,90.6,0,110.2,13.39,10.52,12.7
"2009-07-30 00:45:30",1106300,3.275,40.37,5.771,1.086,10.92,104.0867,9.74,10.78,90.4,0,110.2,13.39,10.52,2.4
"2009-07-30 00:46:00",1106301,4.075,44.24,9.52,1.398,12.51,104.0916,9.75,10.87,90.5,0,110.2,13.39,10.53,6.2
"2009-07-30 00:46:30",1106302,3.625,40.72,7.469,1.094,12.27,104.0878,9.74,10.94,90.7,0,110.2,13.39,10.52,2.7
"2009-07-30 00:47:00",1106303,2.901,40.53,6.09,0.993,10.51,104.0882,9.74,10.77,90.6,0,110.2,13.39,10.53,2.5
"2009-07-30 00:47:30",1106304,2.708,42.32,7.155,0.79,10.93,104.0978,9.76,10.9,90.8,0,110.1,13.39,10.55,4.3
"2009-07-30 00:48:00",1106305,3.423,42.17,4.998,1.051,11.56,104.1016,9.77,10.76,90.7,0,110.2,13.39,10.56,4.2
"2009-07-30 00:48:30",1106306,3.799,44.82,6.682,1.46,12.04,104.1013,9.77,10.92,90.9,0,110.2,13.39,10.56,6.8
"2009-07-30 00:49:00",1106307,5.049,47.58,7.458,1.197,14.28,104.1017,9.77,11.01,91,0,110.2,13.39,10.56,9.6
"2009-07-30 00:49:30",1106308,3.571,46.94,7.155,1.364,12.57,104.1006,9.77,10.98,91,0,110.2,13.39,10.56,8.9
"2009-07-30 00:50:00",1106309,2.308,40.01,8.48,0.782,11.12,104.1008,9.77,10.92,91,0,110.2,13.39,10.56,2.0
"2009-07-30 00:50:30",1106310,2.473,44.76,7.437,1.403,11.64,104.1079,9.79,10.81,91,0,110.2,13.39,10.58,6.8
"2009-07-30 00:51:00",1106311,1.219,28.98,6.8,0.126,10.17,104.1141,9.81,10.89,91.1,0,110.2,13.42,10.59,351.0
"2009-07-30 00:51:30",1106312,1.642,43.91,3.085,0.694,9.99,104.1179,9.82,10.78,91,0,110.2,13.39,10.60,5.9
"2009-07-30 00:52:00",1106313,2.395,47.96,6.526,1.215,11.82,104.1205,9.82,10.95,91.2,0,110.2,13.39,10.61,10.0
"2009-07-30 00:52:30",1106314,1.708,35.77,3.32,0.186,9.98,104.1233,9.83,10.8,91.1,0,110.2,13.43,10.62,357.8
"2009-07-30 00:53:00",1106315,1.452,28.08,5.743,0.227,10.15,104.1264,9.84,10.81,91.2,0,110.2,13.43,10.62,350.1
"2009-07-30 00:53:30",1106316,2.358,35.54,8.22,1.356,11.47,104.1293,9.84,10.89,91.3,0,110.2,13.39,10.63,357.5
"2009-07-30 00:54:00",1106317,3.142,41.75,6.515,1.267,13.43,104.1299,9.85,11.03,91.4,0,110.2,13.4,10.63,3.8
"2009-07-30 00:54:30",1106318,1.635,33.4,3.122,0.203,10.83,104.129,9.84,10.98,91.4,0,110.2,13.42,10.63,355.4
"2009-07-30 00:55:00",1106319,2.759,36.81,6.19,1.339,12.57,104.1275,9.84,10.94,91.3,0,110.2,13.39,10.63,358.8
"2009-07-30 00:55:30",1106320,1.837,34.45,7.073,0.952,11.38,104.1268,9.84,10.99,91.4,0,110.2,13.39,10.62,356.5
"2009-07-30 00:56:00",1106321,2.578,44.08,7.971,1.272,11.81,104.1253,9.83,10.87,91.3,0,110.2,13.39,10.62,6.1
"2009-07-30 00:56:30",1106322,2.323,47.11,8.86,1.202,11.71,104.1248,9.83,10.95,91.4,0,110.2,13.39,10.62,9.1
"2009-07-30 00:57:00",1106323,1.754,47.11,2.996,0.686,9.92,104.126,9.84,10.82,91.2,0,110.2,13.39,10.62,9.1
"2009-07-30 00:57:30",1106324,1.407,50.48,2.303,0.139,9.86,104.1237,9.83,10.82,91.2,0,110.2,13.42,10.62,12.5
"2009-07-30 00:58:00",1106325,1.257,46.02,1.778,0.053,10.16,104.122,9.83,10.92,91.3,0,110.2,13.42,10.61,8.0
"2009-07-30 00:58:30",1106326,2.22,53.56,6.338,1.239,12.43,104.1223,9.83,10.88,91.3,0,110.2,13.39,10.61,15.6
"2009-07-30 00:59:00",1106327,1.797,56.51,7.602,1.067,12.26,104.1206,9.82,11.06,91.4,0,110.2,13.39,10.61,18.5
"2009-07-30 00:59:30",1106328,2.538,61.31,5.121,1.336,12.69,104.1203,9.82,10.89,91.3,0,110.2,13.39,10.61,23.3
"2009-07-30 01:00:00",1106329,1.445,62.35,4.16,0.064,10.72,104.1229,9.83,10.93,91.3,0,110.2,13.43,10.61,24.3
"2009-07-30 01:00:30",1106330,2.819,68.05,8.98,1.316,12.84,104.122,9.83,10.95,91.3,0,110.2,13.4,10.61,30.1
"2009-07-30 01:01:00",1106331,1.655,67.89,3.586,0.072,10.14,104.1235,9.83,10.81,91.2,0,110.2,13.43,10.62,29.9
"2009-07-30 01:01:30",1106332,2.588,73.78,5.642,1.307,11.77,104.1235,9.83,10.98,91.4,0,110.2,13.4,10.62,35.8
"2009-07-30 01:02:00",1106333,1.844,66.78,3.021,0.077,10.16,104.1234,9.83,10.92,91.3,0,110.2,13.44,10.62,28.8
"2009-07-30 01:02:30",1106334,1.989,65.87,1.535,0.061,9.96,104.1243,9.83,10.82,91.2,0,110.2,13.44,10.62,27.9
"2009-07-30 01:03:00",1106335,2.65,68.03,5.277,1.024,10.96,104.126,9.84,10.81,91.2,0,110.2,13.4,10.62,30.0
"2009-07-30 01:03:30",1106336,3.268,71.88,6.629,1.318,12.68,104.1269,9.84,10.95,91.4,0,110.2,13.4,10.62,33.9
"2009-07-30 01:04:00",1106337,3.329,71.47,7.748,1.35,12.71,104.1271,9.84,10.87,91.2,0,110.2,13.4,10.63,33.5
"2009-07-30 01:04:30",1106338,3.024,67.42,5.8,1.283,12.41,104.1255,9.83,10.94,91.3,0,110.2,13.4,10.62,29.4
"2009-07-30 01:05:00",1106339,3.009,70.94,4.939,1.283,12.25,104.1246,9.83,10.88,91.2,0,110.2,13.4,10.62,32.9
"2009-07-30 01:05:30",1106340,1.995,62.12,1.577,0.101,10.28,104.1255,9.83,10.93,91.3,0,110.2,13.44,10.62,24.1
"2009-07-30 01:06:00",1106341,2.43,66.1,5.804,1.01,10.43,104.1255,9.83,10.83,91.1,0,110.2,13.4,10.62,28.1
"2009-07-30 01:06:30",1106342,2.68,73.65,8.02,1.228,11.55,104.1271,9.84,10.98,91.3,0,110.2,13.4,10.63,35.7
"2009-07-30 01:07:00",1106343,2.127,71.29,5.369,0.978,10.26,104.1277,9.84,10.82,91.1,0,110.2,13.4,10.63,33.3
"2009-07-30 01:07:30",1106344,1.976,68.05,1.564,0.111,10.12,104.1288,9.84,10.82,91.1,0,110.2,13.44,10.63,30.1
"2009-07-30 01:08:00",1106345,3.118,69.64,4.908,1.439,12.33,104.1319,9.85,10.96,91.2,0,110.2,13.4,10.64,31.6
"2009-07-30 01:08:30",1106346,2.908,57.08,5.313,0.9,11.49,104.1322,9.85,10.99,91.3,0,110.2,13.4,10.64,19.1
"2009-07-30 01:09:00",1106347,3.376,64.48,5.382,1.317,12.77,104.1325,9.85,10.99,91.3,0,110.2,13.4,10.64,26.5
"2009-07-30 01:09:30",1106348,4.154,65.6,7.991,1.17,14.1,104.1328,9.85,11.04,91.3,0,110.2,13.4,10.64,27.6
"2009-07-30 01:10:00",1106349,2.57,57.49,5.946,0.876,11.34,104.1328,9.85,10.97,91.2,0,110.2,13.4,10.64,19.5
"2009-07-30 01:10:30",1106350,2.267,56.99,1.691,0.119,9.93,104.1328,9.85,10.85,91.1,0,110.2,13.43,10.64,19.0
"2009-07-30 01:11:00",1106351,2.754,57.71,7.216,1.104,11.32,104.1328,9.85,11,91.2,0,110.2,13.4,10.64,19.7
"2009-07-30 01:11:30",1106352,2.851,59.81,4.33,0.898,10.58,104.1328,9.85,10.91,91.1,0,110.2,13.4,10.64,21.8
"2009-07-30 01:12:00",1106353,2.278,57.31,2.582,0.111,10.21,104.1328,9.85,10.85,91,0,110.1,13.43,10.64,19.3
"2009-07-30 01:12:30",1106354,3.652,57.45,6.754,1.452,12.38,104.1328,9.85,11.01,91.2,0,110.2,13.39,10.64,19.5
"2009-07-30 01:13:00",1106355,3.373,70.87,7.968,1.195,12.67,104.1328,9.85,10.99,91.2,0,110.2,13.4,10.64,32.9
"2009-07-30 01:13:30",1106356,3.877,67.62,6.113,1.392,12.55,104.1328,9.85,10.98,91.1,0,110.2,13.39,10.64,29.6
"2009-07-30 01:14:00",1106357,4.467,64.57,5.739,1.253,14.36,104.1328,9.85,11.12,91.2,0,110.2,13.39,10.64,26.6
"2009-07-30 01:14:30",1106358,3.066,56.69,5.722,1.031,11.22,104.1328,9.85,10.92,91,0,110.2,13.39,10.64,18.7
"2009-07-30 01:15:00",1106359,2.545,56.64,6.425,0.147,9.95,104.1328,9.85,10.85,90.9,0,110.2,13.42,10.64,18.6
"2009-07-30 01:15:30",1106360,3.171,69.34,9.07,0.988,11.33,104.1328,9.85,11.01,91.1,0,110.2,13.4,10.64,31.3
"2009-07-30 01:16:00",1106361,2.656,69.21,5.129,1.021,10.61,104.1328,9.85,10.92,91,0,110.2,13.4,10.64,31.2
"2009-07-30 01:16:30",1106362,2.344,60.06,8.56,0.327,10.2,104.1328,9.85,10.91,91,0,110.2,13.44,10.64,22.1
"2009-07-30 01:17:00",1106363,4.343,62.37,9.83,1.318,12.53,104.1345,9.86,10.96,91.1,0,110.2,13.4,10.64,24.4
"2009-07-30 01:17:30",1106364,4.085,62.65,6.925,1.173,13.18,104.1359,9.86,11.09,91.2,0,110.2,13.4,10.65,24.7
"2009-07-30 01:18:00",1106365,4.064,60.23,6.273,1.082,12.48,104.1407,9.87,11.13,91.2,0,110.2,13.4,10.66,22.2
"2009-07-30 01:18:30",1106366,4.456,57.73,5.344,1.248,12.53,104.1396,9.87,11.11,91.1,0,110.2,13.4,10.66,19.7
"2009-07-30 01:19:00",1106367,5.021,59.01,7.225,1.276,12.8,104.141,9.87,10.97,90.9,0,110.2,13.4,10.66,21.0
"2009-07-30 01:19:30",1106368,4.896,58.78,6.536,1.269,12.25,104.1421,9.88,10.99,90.8,0,110.2,13.4,10.66,20.8
"2009-07-30 01:20:00",1106369,4.496,61.72,7.495,1.146,12.17,104.1469,9.89,11.02,90.8,0,110.2,13.4,10.68,23.7
"2009-07-30 01:20:30",1106370,4.192,63.83,5.297,1.074,10.95,104.1492,9.9,10.87,90.6,0,110.2,13.4,10.68,25.8
"2009-07-30 01:21:00",1106371,4.905,61.92,5.11,1.353,12.61,104.1531,9.91,11.01,90.7,0,110.2,13.4,10.69,23.9
"2009-07-30 01:21:30",1106372,5.351,57.4,9.49,1.364,12.35,104.1573,9.92,10.97,90.6,0,110.2,13.4,10.70,19.4
"2009-07-30 01:22:00",1106373,4.717,55.66,5.761,0.779,11.74,104.159,9.92,11,90.6,0,110.2,13.4,10.71,17.7
"2009-07-30 01:22:30",1106374,5.294,61.38,4.502,1.428,12.65,104.1604,9.92,10.96,90.5,0,110.2,13.4,10.71,23.4
"2009-07-30 01:23:00",1106375,4.768,63.92,7.571,1.235,12.38,104.1643,9.93,11.12,90.6,0,110.2,13.4,10.72,25.9
"2009-07-30 01:23:30",1106376,5.216,67.51,9.4,1.15,12.63,104.1655,9.94,10.97,90.4,0,110.2,13.4,10.72,29.5
"2009-07-30 01:24:00",1106377,4.332,69.55,11.12,1.139,12.18,104.1658,9.94,11.03,90.3,0,110.2,13.4,10.72,31.6
"2009-07-30 01:24:30",1106378,3.974,65.88,7.252,1.168,11.54,104.1652,9.94,10.89,90.2,0,110.2,13.4,10.72,27.9
"2009-07-30 01:25:00",1106379,4.105,66.53,7.336,1.25,12.69,104.1667,9.94,11.06,90.3,0,110.2,13.4,10.73,28.5
"2009-07-30 01:25:30",1106380,4.541,56.91,7.036,1.291,13.18,104.1664,9.94,11.07,90.4,0,110.2,13.4,10.73,18.9
"2009-07-30 01:26:00",1106381,4.03,57.92,6.325,0.692,11.21,104.1731,9.96,11,90.3,0,110.2,13.4,10.74,19.9
"2009-07-30 01:26:30",1106382,3.843,56.22,5.899,1.299,11.38,104.1802,9.97,10.95,90.3,0,110.2,13.4,10.76,18.2
"2009-07-30 01:27:00",1106383,3.842,62.64,11.53,1.226,12.71,104.1784,9.97,11.1,90.4,0,110.2,13.4,10.76,24.6
"2009-07-30 01:27:30",1106384,3.451,63.22,8.85,1.22,12.28,104.1799,9.97,11.07,90.3,0,110.2,13.39,10.76,25.2
"2009-07-30 01:28:00",1106385,2.509,53.28,6.212,0.736,11.1,104.1853,9.99,11.08,90.3,0,110.2,13.4,10.77,15.3
"2009-07-30 01:28:30",1106386,2.243,52.41,3.176,0.173,10.25,104.1901,10,10.95,90.2,0,110.2,13.42,10.79,14.4
"2009-07-30 01:29:00",1106387,3.302,64.94,10.02,1.296,12.46,104.1917,10,11.12,90.4,0,110.2,13.39,10.79,26.9
"2009-07-30 01:29:30",1106388,3.899,58.26,7.798,1.345,12.23,104.1952,10.01,11.03,90.3,0,110.2,13.39,10.80,20.3
"2009-07-30 01:30:00",1106389,3.025,58.97,6.453,0.549,11.6,104.1965,10.02,11.11,90.4,0,110.2,13.39,10.80,21.0
"2009-07-30 01:30:30",1106390,3.735,60.31,6.343,1.391,12.23,104.196,10.02,11.01,90.2,0,110.2,13.39,10.80,22.3
"2009-07-30 01:31:00",1106391,3.152,55.43,5.738,0.739,11.25,104.1997,10.02,11.12,90.2,0,110.1,13.39,10.81,17.4
"2009-07-30 01:31:30",1106392,4.087,62.31,8.03,1.309,12.57,104.1994,10.02,11,90.1,0,110.2,13.39,10.81,24.3
"2009-07-30 01:32:00",1106393,4.436,52.13,8.12,1.055,13.07,104.2002,10.03,11.19,90.2,0,110.2,13.39,10.81,14.1
"2009-07-30 01:32:30",1106394,3.36,48.91,6.424,0.709,10.77,104.2005,10.03,10.98,90,0,110.2,13.4,10.81,10.9
"2009-07-30 01:33:00",1106395,4.471,61.06,4.816,1.309,12.76,104.1994,10.02,11.1,90,0,110.2,13.4,10.81,23.1
"2009-07-30 01:33:30",1106396,4.778,65.96,7.569,1.375,13.12,104.1979,10.02,11.16,89.9,0,110.2,13.4,10.81,28.0
"2009-07-30 01:34:00",1106397,4.778,62.23,5.345,1.256,13.1,104.1974,10.02,11.1,89.7,0,110.2,13.4,10.81,24.2
"2009-07-30 01:34:30",1106398,3.499,53.43,10.36,0.284,10.68,104.1937,10.01,11.08,89.6,0,110.2,13.44,10.80,15.4
"2009-07-30 01:35:00",1106399,4.279,49.78,5.497,1.166,12.74,104.1954,10.01,11.03,89.4,0,110.2,13.4,10.80,11.8
"2009-07-30 01:35:30",1106400,4.009,58.04,6.862,1.246,12.07,104.1943,10.01,11.1,89.4,0,110.2,13.4,10.80,20.0
"2009-07-30 01:36:00",1106401,5.184,59.47,6.263,1.245,13.4,104.1983,10.02,11.07,89.3,0,110.2,13.4,10.81,21.5
"2009-07-30 01:36:30",1106402,4.205,47.19,4.889,0.47,10.56,104.1994,10.02,10.98,89.2,0,110.2,13.44,10.81,9.2
"2009-07-30 01:37:00",1106403,4.605,43.99,5.087,0.989,12.62,104.1988,10.02,11.08,89.3,0,110.2,13.4,10.81,6.0
"2009-07-30 01:37:30",1106404,4.167,41.99,11.56,1.506,12.96,104.1999,10.03,11.14,89.3,0,110.2,13.4,10.81,4.0
"2009-07-30 01:38:00",1106405,4.399,46.72,5.673,1.274,12.87,104.2002,10.03,11.14,89.3,0,110.2,13.4,10.81,8.7
"2009-07-30 01:38:30",1106406,2.269,28.65,3.617,0.206,10.55,104.1997,10.02,10.96,89.2,0,110.2,13.4,10.81,350.6
"2009-07-30 01:39:00",1106407,2.367,34.49,7.041,0.548,10.36,104.1997,10.02,10.97,89.3,0,110.2,13.44,10.81,356.5
"2009-07-30 01:39:30",1106408,5.011,55.32,6.985,1.291,14.26,104.1997,10.02,11.18,89.5,0,110.2,13.4,10.81,17.3
"2009-07-30 01:40:00",1106409,4.844,56.53,7.999,1.238,14.2,104.1991,10.02,11.25,89.5,0,110.2,13.4,10.81,18.5
"2009-07-30 01:40:30",1106410,3.089,54.6,3.684,0.648,10.57,104.2002,10.03,10.99,89.3,0,110.2,13.4,10.81,16.6
"2009-07-30 01:41:00",1106411,4.222,55.05,6.294,1.131,12.21,104.2005,10.03,11.13,89.4,0,110.2,13.4,10.81,17.0
"2009-07-30 01:41:30",1106412,3.86,53.28,4.931,1.275,11.99,104.2002,10.03,11.11,89.3,0,110.2,13.4,10.81,15.3
"2009-07-30 01:42:00",1106413,4.099,53.42,7.259,1.362,13.13,104.2002,10.03,11.08,89.2,0,110.2,13.4,10.81,15.4
"2009-07-30 01:42:30",1106414,2.796,44.19,4.739,0.379,11.25,104.2002,10.03,11.12,89.3,0,110.2,13.44,10.81,6.2
"2009-07-30 01:43:00",1106415,2.767,42.26,3.266,0.113,10.28,104.1999,10.03,10.99,89.1,0,110.2,13.44,10.81,4.3
"2009-07-30 01:43:30",1106416,3.898,56.02,7.02,1.373,12.31,104.1994,10.02,11.14,89.3,0,110.2,13.4,10.81,18.0
"2009-07-30 01:44:00",1106417,4.129,55.88,8.08,1.232,13.78,104.1973,10.02,11.25,89.4,0,110.1,13.4,10.81,17.9
"2009-07-30 01:44:30",1106418,2.847,48.51,6.778,1.123,11.48,104.1991,10.02,10.99,89.1,0,110.2,13.4,10.81,10.5
"2009-07-30 01:45:00",1106419,2.292,37.65,6.45,0.864,10.87,104.1999,10.03,10.99,89.2,0,110.2,13.39,10.81,359.6
"2009-07-30 01:45:30",1106420,2.137,48.11,8.61,0.891,11.29,104.1999,10.03,11.15,89.4,0,110.1,13.39,10.81,10.1
"2009-07-30 01:46:00",1106421,3.268,61.65,3.821,1.216,13.02,104.2005,10.03,11.02,89.3,0,110.2,13.39,10.81,23.7
"2009-07-30 01:46:30",1106422,1.35,50.94,3.035,0.692,10.94,104.2002,10.03,11.12,89.5,0,110.2,13.4,10.81,12.9
"2009-07-30 01:47:00",1106423,2.508,38.86,10.56,1.264,11.95,104.1997,10.02,11.07,89.4,0,110.2,13.4,10.81,0.9
"2009-07-30 01:47:30",1106424,1.711,39.29,2.995,0.112,9.98,104.1999,10.03,11.02,89.5,0,110.2,13.43,10.81,1.3
"2009-07-30 01:48:00",1106425,1.306,49.46,2.251,0.142,10.06,104.2005,10.03,11.03,89.5,0,110.2,13.43,10.81,11.5
"2009-07-30 01:48:30",1106426,1.149,46.53,6.498,0.774,11.06,104.1999,10.03,11.17,89.6,0,110.1,13.4,10.81,8.5
"2009-07-30 01:49:00",1106427,1.887,37.26,10.25,1.376,12.23,104.2005,10.03,11.09,89.6,0,110.1,13.4,10.81,359.3
"2009-07-30 01:49:30",1106428,1.684,47.89,10.08,1.157,11.65,104.1999,10.03,11.02,89.5,0,110.2,13.4,10.81,9.9